OV1-4 R/B, 2124

Orbit data source: Space-Track

OV1-4 R/B, 2124 is space debris in LEO originally from a launch on Wed, 30 Mar 1966 UTC launched from the Air Force Western Test Range (AFWTR). Debris objects in space refer to the collection of defunct objects orbiting the Earth. Examples of debris include non-operational satellites, rocket bodies, and fragments generated from explosions, collisions, or faulty payload assembly.

Loading next visibility...
Identifier
2124, 1966-025D
Orbit
LEO
Country
Flag of USUS
Related business
Manufacturer
ABL
Mission
Spacecraft
Bus & Motor
ALTAIR, Unknown motor
Mass
~125 kg wet, ~125 kg dry
Launch date (UTC)
1966-03-30 (60 years ago)
Launch vehicle
Unknown
Launch site
Air Force Western Test Range (AFWTR)
Object type
Payload
Rocket body
Debris
Shape & HBR
Unknown
Radar Cross Section
Medium (>0.1 m² and <1 m²)

Expand to show TLE details & history
Last TLE update: 4 hours ago

TLE from 4 hours ago
0 OV1-4 R/B
1  2124U 66025D   26127.86192942  .00000391  00000-0  10035-3 0  9992
2  2124 144.5085 214.8670 0080551 181.2845 178.7623 13.87838097 45999
Epoch: 2026-05-07T20:41Z
TLE epoch observation values (Epoch: 2026-05-07T20:41:10.701Z)
Latitude
-0.00003°
Longitude
38.87047°
Altitude
994.13 km
Speed
7.327 km/s
True Right ascension
14h 19m 28s
True Declination
0° 00' 00"
Sunlit
Object was in full shadow at epoch
Visualization orbit readout
Latitude
Unknown
Longitude
Unknown
Altitude
Unknown
Speed
Unknown
Apparent Right ascension
Unknown
Apparent Declination
Unknown
Sunlit
N/A
Visualization observer readout
Local Sidereal Time
09:10:02
Azimuth
Unknown
Elevation
Unknown
Doppler factor
Unknown
Orbital elements
Apogee altitude
998.141 km
Perigee altitude
880.258 km
Semi-major axis
7,317.336 km
Eccentricity
0.00806
Inclination
144.5085°
RAAN
214.867°
Arg. of periapsis
181.2845°
True anomaly
178.78204°
Mean anomaly
178.7623°
Eccentric anomaly
178.77219°
Mean motion
3.46748 °/min
Orbital period
103.82 mins
BSTAR
0.00010035
Loading maneuver chart data...
Computing Atmospheric mass density...
Loading historical data...
Loading historical data...
Loading historical data...
Loading historical data...
Loading historical data...
Loading historical data...
Loading historical data...

Documentation

Showing up to 5 results
|